[[{"header":{"parameterUnit":"m.s-1","parameterCategory":1,"la1":30.2992,"la2":30.254,"lo1":-89.0895,"lo2":-89.0443,"dy":0.0025,"dx":0.0025,"nx":19,"ny":19,"refTime":"2026-04-29T03:00:00:Z","depth":0,"parameterNumber":2,"parameterNumberName":"U-component_of_WINDS"},"data":[0,0,0,3.289,3.2891,3.2887,3.2887,3.2933,3.2934,0,0,0,0,0,0,0,0,0,0,0,3.2922,3.2923,3.289,3.2891,3.2887,3.2886,3.2933,3.2934,0,0,0,0,0,0,0,0,0,0,0,3.2921,3.2923,3.2925,3.2891,3.2887,3.2886,3.2932,3.2917,0,0,0,0,0,0,0,0,0,0,3.2912,3.2971,3.2923,3.2925,3.2891,3.2887,3.2886,3.2915,3.2918,3.2957,0,3.3,0,3.2968,3.294,3.294,0,0,0,3.2867,3.2969,3.2941,3.2925,3.2891,3.2887,3.2882,3.2916,3.2919,3.2961,3.3,3.3,3.2969,3.2941,3.2941,3.3251,3.3254,0,0,3.2867,3.2937,3.2939,3.2945,3.2949,3.2882,3.2882,3.2917,3.2964,3.3,3.3,3.297,3.2941,3.2942,3.3249,3.3252,0,0,0,3.2884,3.2938,3.2908,3.2944,3.294,3.2883,3.2882,3.2962,3.2947,3.3,3.297,3.2942,3.2943,3.3246,3.325,3.3446,0,0,0,3.2883,3.2947,3.2909,3.2952,3.294,3.2951,3.2928,3.2944,3.2946,3.297,3.2942,3.2944,3.3243,3.3248,3.3434,3.3525,0,0,0,3.2911,3.295,3.2961,3.2955,3.2957,3.2948,3.2934,3.2943,3.2929,3.2941,3.2944,3.3241,3.3247,3.3424,3.3508,3.3629,0,0,0,3.2961,3.313,3.2965,3.3144,3.2957,3.3072,3.2933,3.3014,3.3047,3.2942,3.3243,3.325,3.3421,3.3497,3.3619,3.3742,3.3801,0,0,3.3213,3.3163,3.3263,3.3115,3.3277,3.3066,3.3257,3.3219,3.3155,3.3223,3.323,3.3438,3.3506,3.3627,3.4109,3.4157,0,0,0,3.3366,3.3439,3.3467,3.3505,3.3485,3.3476,3.3403,3.3391,3.3447,3.3205,3.3513,3.3552,3.3619,3.3675,3.3715,3.377,3.3279,3.3278,3.3278,3.3817,3.3733,3.3894,3.3812,3.3852,3.3781,3.3805,3.3776,3.3673,3.375,3.3767,3.4071,3.4139,3.4168,3.4227,3.3827,3.3828,3.3829,3.3829,3.4178,3.4267,3.4139,3.4248,3.416,3.4251,3.4193,3.412,3.4192,3.4048,3.4103,3.395,3.4223,3.4269,3.3843,3.3841,3.3839,3.3838,3.3837,3.4461,3.449,3.4478,3.4531,3.4582,3.4493,3.4573,3.4488,3.4408,3.4463,3.4475,3.4472,3.4457,3.4476,3.4477,3.4478,3.4479,3.448,3.4481,3.4758,3.4738,3.4816,3.4819,3.4837,3.485,3.479,3.4805,3.48,3.4732,3.4732,3.4625,3.4267,3.4178,3.4496,3.4494,3.4492,3.449,3.4489,3.5149,3.505,3.517,3.519,3.519,3.525,3.5146,3.5187,3.5188,3.5231,3.5116,3.4866,3.4806,3.4774,3.4699,3.5133,3.5133,3.5133,3.5133,3.5386,3.5352,3.546,3.5499,3.5527,3.5449,3.5591,3.5551,3.5491,3.5487,3.5414,3.5309,3.528,3.5238,3.5195,3.5124,3.5656,3.5657,3.5657,3.5623,3.5589,3.5724,3.5671,3.5668,3.5669,3.5801,3.5852,3.5763,3.5677,3.5483,3.5461,3.5292,3.5241,3.5142,3.5078,3.4946,0,0]},{"header":{"parameterUnit":"m.s-1","parameterCategory":1,"la1":30.2992,"la2":30.254,"lo1":-89.0895,"lo2":-89.0443,"dy":0.0025,"dx":0.0025,"nx":19,"ny":19,"refTime":"2026-04-29T03:00:00:Z","depth":0,"parameterNumber":3,"parameterNumberName":"V-component_of_WINDS"},"data":[0,0,0,-0.3901,-0.3899,-0.3792,-0.3791,-0.367,-0.3669,0,0,0,0,0,0,0,0,0,0,0,-0.3943,-0.3942,-0.3901,-0.3899,-0.3792,-0.3791,-0.367,-0.3669,0,0,0,0,0,0,0,0,0,0,0,-0.3943,-0.3942,-0.3942,-0.3899,-0.3792,-0.3791,-0.3671,-0.3746,0,0,0,0,0,0,0,0,0,0,-0.3847,-0.3895,-0.3942,-0.3942,-0.3898,-0.3792,-0.3791,-0.3749,-0.3741,-0.3725,0,-0.3714,0,-0.3689,-0.3662,-0.3662,0,0,0,-0.3892,-0.3902,-0.3864,-0.3942,-0.3897,-0.3792,-0.3838,-0.3745,-0.3735,-0.3715,-0.3712,-0.3707,-0.3687,-0.3661,-0.3661,-0.359,-0.359,0,0,-0.3898,-0.3929,-0.387,-0.3859,-0.3876,-0.3842,-0.3835,-0.3739,-0.3738,-0.3711,-0.3704,-0.3685,-0.3661,-0.366,-0.359,-0.359,0,0,0,-0.392,-0.3934,-0.3897,-0.3864,-0.3843,-0.3839,-0.3831,-0.3742,-0.3728,-0.3702,-0.3684,-0.366,-0.3659,-0.359,-0.359,-0.3619,0,0,0,-0.3923,-0.3946,-0.39,-0.3918,-0.3845,-0.3792,-0.3837,-0.3735,-0.3723,-0.3685,-0.366,-0.3658,-0.359,-0.359,-0.3619,-0.3629,0,0,0,-0.3946,-0.3949,-0.3936,-0.392,-0.3875,-0.3792,-0.3772,-0.3731,-0.3712,-0.3662,-0.3657,-0.359,-0.359,-0.3618,-0.3628,-0.3619,0,0,0,-0.3981,-0.3966,-0.3937,-0.3913,-0.3876,-0.3811,-0.3772,-0.3722,-0.3683,-0.3659,-0.359,-0.359,-0.3618,-0.3627,-0.3619,-0.3619,-0.3621,0,0,-0.3979,-0.3967,-0.395,-0.3921,-0.3868,-0.3824,-0.3775,-0.3711,-0.3678,-0.3621,-0.3619,-0.3619,-0.3628,-0.3619,-0.3622,-0.3624,0,0,0,-0.396,-0.3948,-0.3927,-0.389,-0.3838,-0.3794,-0.3733,-0.3708,-0.3657,-0.3655,-0.3612,-0.3616,-0.361,-0.3608,-0.361,-0.3603,-0.359,-0.359,-0.359,-0.4005,-0.3961,-0.3929,-0.3872,-0.3836,-0.377,-0.3737,-0.3692,-0.3661,-0.3651,-0.3635,-0.3641,-0.3641,-0.3642,-0.3635,-0.363,-0.363,-0.363,-0.363,-0.3999,-0.3976,-0.393,-0.3883,-0.3836,-0.3796,-0.3731,-0.3709,-0.3665,-0.3651,-0.3643,-0.3633,-0.3646,-0.3637,-0.3632,-0.3631,-0.3631,-0.3631,-0.3631,-0.4026,-0.4007,-0.3975,-0.3913,-0.387,-0.3812,-0.377,-0.3729,-0.3691,-0.3682,-0.366,-0.366,-0.3655,-0.3674,-0.3674,-0.3674,-0.3674,-0.3674,-0.3674,-0.4068,-0.403,-0.3999,-0.3939,-0.3908,-0.3861,-0.3791,-0.3759,-0.3713,-0.3687,-0.3686,-0.3656,-0.3654,-0.3656,-0.3674,-0.3674,-0.3674,-0.3674,-0.3674,-0.4082,-0.4071,-0.4025,-0.3993,-0.3917,-0.3876,-0.3822,-0.3759,-0.3726,-0.3707,-0.3675,-0.368,-0.3666,-0.3664,-0.3665,-0.3685,-0.3685,-0.3685,-0.3685,-0.4106,-0.4093,-0.4034,-0.3985,-0.3932,-0.3877,-0.3825,-0.3768,-0.3709,-0.3686,-0.3676,-0.3672,-0.3672,-0.3658,-0.3656,-0.3656,-0.3673,-0.3673,-0.3673,-0.4113,-0.4092,-0.4056,-0.3996,-0.3932,-0.3878,-0.3827,-0.3772,-0.3702,-0.3672,-0.3666,-0.3667,-0.3661,-0.3661,-0.3636,-0.3635,-0.3634,0,0]}]]